Petersburg, AK

3:20 AM AKDT on September 21, 2017 (GMT -0800)
Johnson Petersburg

Weather History for PAPG - March, 2013

Change the Weather History Date:

Saturday, March 2, 2013

  Actual Average Record
Temperature  
Mean Temperature 34 °F -  
Max Temperature 37 °F 35 °F 54 °F (1988)
Min Temperature 32 °F 26 °F 5 °F (2011)
Degree Days  
Heating Degree Days 30    
Moisture  
Dew Point 32 °F    
Average Humidity 88    
Maximum Humidity 93    
Minimum Humidity 81    
Precipitation  
Precipitation 0.24 in - - ()
Sea Level Pressure  
Sea Level Pressure 30.02 in    
Wind  
Wind Speed 1 mph (NE)    
Max Wind Speed 8 mph    
Max Gust Speed -    
Visibility 8 miles    
Events Fog    
Averages and records for this station are not official NWS values.
T = Trace of Precipitation, MM = Missing Value Source: NWS Daily Summary

Daily Weather History Graph

Daily Weather History Graph

Search for Another Location

Airport or City:

Trip Planner

Search our weather history database for the weather conditions in past years. The results will help you decide how hot, cold, wet, or windy it might be!

Date:

Astronomy

Mar. 02, 2013 Rise Set
Actual Time 6:40 AM AKST 5:27 PM AKST
Civil Twilight 6:02 AM AKST 6:06 PM AKST
Nautical Twilight 5:18 AM AKST 6:50 PM AKST
Astronomical Twilight 4:34 AM AKST 7:34 PM AKST
Moon No Moon Rise 8:04 AM AKST (3/2)
Length of Visible Light 12h 03m
Length of Day
10h 47m
Waning Gibbous, 72% of the Moon is Illuminated
Mar 2
Waning Gibbous
Mar 4
Last Quarter
Mar 11
New
Mar 19
First Quarter
Mar 27
Full

Hourly Weather History & Observations

Time (AKST) Temp. Windchill Dew Point Humidity Pressure Visibility Wind Dir Wind Speed Gust Speed Precip Events Conditions
12:16 AM 35.6 °F - 32.0 °F 87% 29.97 in 10.0 mi Calm Calm - N/A   Overcast
12:36 AM 35.6 °F - 32.0 °F 87% 29.97 in 10.0 mi Calm Calm - N/A   Overcast
12:56 AM 35.6 °F 32.8 °F 32.0 °F 87% 29.97 in 10.0 mi WNW 3.5 mph - N/A   Overcast
1:16 AM 35.6 °F - 32.0 °F 87% 29.98 in 10.0 mi Calm Calm - N/A   Overcast
1:36 AM 35.6 °F 32.8 °F 32.0 °F 87% 29.97 in 10.0 mi SW 3.5 mph - N/A   Overcast
1:56 AM 37.4 °F 34.9 °F 33.8 °F 87% 29.97 in 10.0 mi WSW 3.5 mph - N/A   Overcast
2:16 AM 37.4 °F - 33.8 °F 87% 29.97 in 10.0 mi Calm Calm - N/A   Overcast
3:36 AM 37.4 °F - 33.8 °F 87% 29.96 in 10.0 mi Calm Calm - N/A   Overcast
3:56 AM 35.6 °F 32.8 °F 32.0 °F 87% 29.96 in 10.0 mi NE 3.5 mph - N/A   Overcast
4:16 AM 37.4 °F 31.4 °F 32.0 °F 81% 29.96 in 10.0 mi ENE 8.1 mph - N/A   Overcast
4:36 AM 35.6 °F 30.7 °F 32.0 °F 87% 29.97 in 7.0 mi East 5.8 mph - 0.04 in   Overcast
4:56 AM 33.8 °F 30.8 °F 30.2 °F 87% 29.97 in 5.0 mi NNE 3.5 mph - 0.07 in   Overcast
5:16 AM - - - N/A% - - North - - 0.02 in   Unknown
5:36 AM 33.8 °F - 30.2 °F 87% 29.97 in 1.5 mi Calm Calm - 0.02 in   Overcast
5:56 AM 33.8 °F - 30.2 °F 87% 29.96 in 3.0 mi Calm Calm - 0.02 in   Overcast
6:16 AM 33.8 °F - 30.2 °F 87% 29.96 in 7.0 mi Calm Calm - N/A   Overcast
6:36 AM 33.8 °F - 30.2 °F 87% 29.96 in 7.0 mi Calm Calm - N/A   Overcast
6:56 AM 33.8 °F - 30.2 °F 87% 29.96 in 10.0 mi Calm Calm - 0.02 in   Overcast
7:16 AM 33.8 °F - 30.2 °F 87% 29.96 in 10.0 mi Calm Calm - 0.01 in   Overcast
7:36 AM 33.8 °F - 30.2 °F 87% 29.96 in 10.0 mi Calm Calm - 0.03 in   Overcast
7:56 AM 33.8 °F - 30.2 °F 87% 29.96 in 10.0 mi Calm Calm - 0.04 in   Overcast
8:16 AM 33.8 °F - 30.2 °F 87% 29.96 in 10.0 mi Calm Calm - 0.01 in   Overcast
8:36 AM 33.8 °F - 30.2 °F 87% 29.96 in 10.0 mi Calm Calm - 0.03 in   Overcast
8:56 AM 33.8 °F - 32.0 °F 93% 29.96 in 10.0 mi Calm Calm - 0.03 in   Overcast
9:16 AM 35.6 °F 32.8 °F 33.8 °F 93% 29.96 in 10.0 mi East 3.5 mph - N/A   Overcast
9:36 AM 35.6 °F - 32.0 °F 87% 29.97 in 10.0 mi Calm Calm - N/A   Overcast
9:56 AM 35.6 °F - 33.8 °F 93% 29.97 in 10.0 mi Calm Calm - N/A   Mostly Cloudy
10:16 AM 35.6 °F - 32.0 °F 87% 29.98 in 10.0 mi Calm Calm - N/A   Mostly Cloudy
10:36 AM 37.4 °F - 33.8 °F 87% 29.98 in 10.0 mi Calm Calm - N/A   Mostly Cloudy
10:56 AM 37.4 °F - 33.8 °F 87% 29.99 in 10.0 mi Calm Calm - N/A   Mostly Cloudy
11:16 AM 37.4 °F - 33.8 °F 87% 29.99 in 10.0 mi Calm Calm - N/A   Mostly Cloudy
11:36 AM 37.4 °F - 33.8 °F 87% 30.00 in 10.0 mi Calm Calm - N/A   Mostly Cloudy
11:56 AM 37.4 °F - 33.8 °F 87% 30.00 in 10.0 mi Calm Calm - N/A   Overcast
12:16 PM 37.4 °F - 33.8 °F 87% 30.01 in 10.0 mi Calm Calm - N/A   Overcast
12:36 PM 37.4 °F - 33.8 °F 87% 30.01 in 5.0 mi Calm Calm - 0.01 in   Overcast
12:56 PM 37.4 °F 33.8 °F 33.8 °F 87% 30.01 in 5.0 mi ENE 4.6 mph - 0.02 in   Overcast
1:16 PM 37.4 °F 33.8 °F 33.8 °F 87% 30.02 in 5.0 mi NNE 4.6 mph - 0.02 in   Overcast
1:36 PM 37.4 °F 33.8 °F 33.8 °F 87% 30.02 in 5.0 mi ENE 4.6 mph - 0.02 in   Overcast
1:56 PM 37.4 °F 32.8 °F 33.8 °F 87% 30.03 in 5.0 mi NE 5.8 mph - 0.03 in   Overcast
2:16 PM 37.4 °F 32.8 °F 33.8 °F 87% 30.03 in 5.0 mi ENE 5.8 mph - N/A   Overcast
2:36 PM 37.4 °F 32.8 °F 33.8 °F 87% 30.03 in 5.0 mi ENE 5.8 mph - N/A   Overcast
2:56 PM 37.4 °F 33.8 °F 33.8 °F 87% 30.03 in 5.0 mi NE 4.6 mph - N/A   Overcast
3:16 PM 35.6 °F - 33.8 °F 93% 30.04 in 10.0 mi Calm Calm - N/A   Overcast
3:36 PM 37.4 °F - 33.8 °F 87% 30.04 in 10.0 mi Calm Calm - 0.01 in   Overcast
3:56 PM 37.4 °F - 33.8 °F 87% 30.04 in 10.0 mi Calm Calm - 0.01 in   Overcast
4:16 PM 37.4 °F - 33.8 °F 87% 30.05 in 10.0 mi Calm Calm - N/A   Overcast
4:36 PM 37.4 °F - 33.8 °F 87% 30.05 in 10.0 mi Calm Calm - N/A   Overcast
4:50 PM 37.4 °F - 33.8 °F 87% 30.05 in 10.0 mi Calm Calm - N/A Fog Patches of Fog
5:47 PM 37.4 °F - 35.6 °F 93% 30.06 in 7.0 mi Calm Calm - N/A Fog Patches of Fog
6:47 PM 33.8 °F - 32.0 °F 93% 30.08 in 5.0 mi Calm Calm - N/A   Mostly Cloudy
7:47 PM 33.8 °F - 32.0 °F 93% 30.10 in 0.5 mi Calm Calm - N/A Fog Fog
8:46 PM 33.8 °F - 32.0 °F 93% 30.12 in 0.5 mi Calm Calm - N/A Fog Fog
9:36 PM 33.8 °F - 30.2 °F 87% 30.15 in 0.5 mi Calm Calm - N/A   Overcast
9:56 PM 32.0 °F - 30.2 °F 93% 30.15 in 0.8 mi Calm Calm - N/A   Overcast
10:16 PM 32.0 °F 28.7 °F 30.2 °F 93% 30.16 in 0.5 mi SW 3.5 mph - N/A   Overcast
10:36 PM 32.0 °F 28.7 °F 30.2 °F 93% 30.17 in 5.0 mi SW 3.5 mph - N/A   Overcast
10:56 PM 32.0 °F - 30.2 °F 93% 30.18 in 10.0 mi Calm Calm - N/A   Overcast
11:16 PM 32.0 °F 28.7 °F 30.2 °F 93% 30.19 in 10.0 mi WSW 3.5 mph - N/A   Overcast
11:36 PM 33.8 °F 30.8 °F 30.2 °F 87% 30.20 in 10.0 mi SSW 3.5 mph - N/A   Overcast
11:56 PM 33.8 °F - 30.2 °F 87% 30.21 in 10.0 mi Calm Calm - N/A   Overcast